Fergus Falls, MN

6:17 PM CST on December 09, 2019 (GMT -0600)
Fergus Falls Municipal-Mickelson

Weather History for KFFM - October, 2019

Change the Weather History Date:

Tuesday, October 1, 2019

  Actual Average Record
Temperature  
Mean Temperature 46 °F -  
Max Temperature 50 °F 64 °F 86 °F (1953)
Min Temperature 42 °F 41 °F 24 °F (1961)
Degree Days  
Heating Degree Days 19    
Moisture  
Dew Point 39 °F    
Average Humidity 81    
Maximum Humidity 100    
Minimum Humidity 66    
Precipitation  
Precipitation 0.03 in - - ()
Sea Level Pressure  
Sea Level Pressure 30.10 in    
Wind  
Wind Speed 10 mph ()    
Max Wind Speed 15 mph    
Max Gust Speed 25 mph    
Visibility 9.9 miles    
Events      
Averages and records for this station are not official NWS values.
T = Trace of Precipitation, MM = Missing Value Source: Averaged Metar Reports

Daily Weather History Graph

Daily Weather History Graph

Search for Another Location

Airport or City:

Astronomy

Oct. 01, 2019 Rise Set
Actual Time 7:22 AM CDT 7:04 PM CDT
Civil Twilight 6:52 AM CDT 7:34 PM CDT
Nautical Twilight 6:18 AM CDT 8:09 PM CDT
Astronomical Twilight 5:42 AM CDT 8:44 PM CDT
Moon 10:50 AM CDT (10/1) 9:07 PM CDT (10/1)
Length of Visible Light 12h 41m
Length of Day
11h 42m
Waxing Crescent, 12% of the Moon is Illuminated
Oct 1
Waxing Crescent
Oct 5
First Quarter
Oct 13
Full
Oct 21
Last Quarter
Oct 27
New

Hourly Weather History & Observations

Time (CDT) Temp. Windchill Dew Point Humidity Pressure Visibility Wind Dir Wind Speed Gust Speed Precip Events Conditions
12:15 AM 44.6 °F 38.1 °F 44.6 °F 100% 29.98 in 5.0 mi North 13.8 mph 19.6 mph N/A   Overcast
12:35 AM 44.6 °F 37.8 °F 44.6 °F 100% 29.98 in 7.0 mi NNW 15.0 mph 18.4 mph N/A   Overcast
12:36 AM 44.6 °F 38.1 °F 42.8 °F 93% 29.98 in 10.0 mi North 13.8 mph 18.4 mph N/A   Overcast
12:55 AM 44.6 °F 38.1 °F 42.8 °F 93% 29.99 in 10.0 mi North 13.8 mph 25.3 mph N/A   Overcast
12:56 AM 44.6 °F 37.8 °F 42.8 °F 93% 29.99 in 10.0 mi NNW 15.0 mph 20.7 mph N/A   Overcast
1:18 AM 44.6 °F 38.8 °F 42.8 °F 93% 29.99 in 10.0 mi North 11.5 mph 20.7 mph N/A   Overcast
1:37 AM 44.6 °F 40.2 °F 42.8 °F 93% 30.01 in 10.0 mi North 8.1 mph - N/A   Overcast
1:56 AM 44.6 °F 39.2 °F 42.8 °F 93% 30.00 in 10.0 mi North 10.4 mph 20.7 mph N/A   Overcast
2:15 AM 44.6 °F 39.7 °F 41.0 °F 87% 29.99 in 10.0 mi North 9.2 mph - N/A   Overcast
2:16 AM 44.6 °F 39.7 °F 41.0 °F 87% 29.99 in 10.0 mi North 9.2 mph - N/A   Overcast
2:35 AM 44.6 °F 40.2 °F 42.8 °F 93% 30.08 in 10.0 mi NW 8.1 mph - N/A   Overcast
2:39 AM 44.6 °F 39.2 °F 41.0 °F 87% 30.07 in 10.0 mi NNW 10.4 mph - N/A   Overcast
2:57 AM 44.6 °F 41.4 °F 41.0 °F 87% 30.08 in 10.0 mi NNW 5.8 mph - N/A   Overcast
3:15 AM 44.6 °F 40.7 °F 41.0 °F 87% 30.06 in 10.0 mi NNW 6.9 mph - N/A   Mostly Cloudy
3:35 AM 44.6 °F 40.2 °F 41.0 °F 87% 30.08 in 10.0 mi NNW 8.1 mph - N/A   Mostly Cloudy
3:36 AM 44.6 °F 40.7 °F 41.0 °F 87% 30.09 in 10.0 mi North 6.9 mph - N/A   Mostly Cloudy
3:55 AM 44.6 °F 40.2 °F 41.0 °F 87% 30.09 in 10.0 mi NNW 8.1 mph - N/A   Scattered Clouds
3:59 AM 44.6 °F 39.7 °F 41.0 °F 87% 30.09 in 10.0 mi NNW 9.2 mph - N/A   Scattered Clouds
4:16 AM 44.6 °F 40.7 °F 41.0 °F 87% 30.08 in 10.0 mi North 6.9 mph - N/A   Scattered Clouds
4:35 AM 44.6 °F 41.4 °F 41.0 °F 87% 30.08 in 10.0 mi North 5.8 mph - N/A   Mostly Cloudy
4:55 AM 44.6 °F 43.1 °F 39.2 °F 81% 30.09 in 10.0 mi North 3.5 mph - N/A   Mostly Cloudy
4:56 AM 44.6 °F 43.1 °F 39.2 °F 81% 30.09 in 10.0 mi North 3.5 mph - N/A   Mostly Cloudy
5:15 AM 44.6 °F 42.2 °F 41.0 °F 87% 30.10 in 10.0 mi NW 4.6 mph - N/A   Overcast
5:19 AM 42.8 °F 40.1 °F 39.2 °F 87% 30.11 in 10.0 mi NW 4.6 mph - N/A   Overcast
5:38 AM 42.8 °F 38.6 °F 39.2 °F 87% 30.10 in 10.0 mi NNW 6.9 mph - 0.01 in   Overcast
5:55 AM 42.8 °F 38.0 °F 39.2 °F 87% 30.09 in 10.0 mi North 8.1 mph - 0.01 in   Overcast
6:15 AM 42.8 °F 36.2 °F 39.2 °F 87% 30.09 in 10.0 mi NNW 12.7 mph 18.4 mph N/A   Mostly Cloudy
6:16 AM 42.8 °F 36.2 °F 39.2 °F 87% 30.10 in 10.0 mi North 12.7 mph 18.4 mph N/A   Mostly Cloudy
6:58 AM 42.8 °F 37.0 °F 39.2 °F 87% 30.06 in 10.0 mi NNE 10.4 mph - N/A   Scattered Clouds
7:16 AM 42.8 °F 37.5 °F 39.2 °F 87% 30.08 in 10.0 mi North 9.2 mph - N/A   Mostly Cloudy
7:35 AM 42.8 °F 38.6 °F 39.2 °F 87% 30.09 in 10.0 mi North 6.9 mph - N/A   Overcast
7:36 AM 42.8 °F 38.6 °F 39.2 °F 87% 30.09 in 10.0 mi North 6.9 mph - N/A   Overcast
7:55 AM 42.8 °F 38.6 °F 39.2 °F 87% 30.12 in 10.0 mi NNW 6.9 mph - N/A   Overcast
7:56 AM 42.8 °F 38.6 °F 39.2 °F 87% 30.12 in 10.0 mi NNW 6.9 mph - N/A   Overcast
8:15 AM 42.8 °F 38.6 °F 39.2 °F 87% 30.11 in 10.0 mi North 6.9 mph - N/A   Overcast
8:19 AM 42.8 °F 37.0 °F 39.2 °F 87% 30.10 in 10.0 mi North 10.4 mph - N/A   Overcast
8:38 AM 42.8 °F 37.5 °F 39.2 °F 87% 30.09 in 10.0 mi North 9.2 mph 17.3 mph N/A   Mostly Cloudy
8:55 AM 42.8 °F 36.2 °F 39.2 °F 87% 30.12 in 10.0 mi North 12.7 mph 18.4 mph N/A   Mostly Cloudy
9:15 AM 42.8 °F 37.0 °F 37.4 °F 81% 30.12 in 10.0 mi North 10.4 mph 19.6 mph N/A   Mostly Cloudy
9:16 AM 42.8 °F 36.6 °F 37.4 °F 81% 30.12 in 10.0 mi North 11.5 mph 19.6 mph N/A   Mostly Cloudy
9:35 AM 42.8 °F 37.5 °F 37.4 °F 81% 30.13 in 10.0 mi North 9.2 mph - N/A   Mostly Cloudy
9:58 AM 42.8 °F 38.0 °F 37.4 °F 81% 30.13 in 10.0 mi North 8.1 mph - N/A   Overcast
10:16 AM 42.8 °F 37.5 °F 37.4 °F 81% 30.12 in 10.0 mi North 9.2 mph - N/A   Overcast
10:36 AM 44.6 °F 40.7 °F 39.2 °F 81% 30.13 in 10.0 mi North 6.9 mph - N/A   Overcast
10:55 AM 44.6 °F 38.8 °F 37.4 °F 76% 30.11 in 10.0 mi NNE 11.5 mph 18.4 mph N/A   Mostly Cloudy
10:56 AM 44.6 °F 38.8 °F 37.4 °F 76% 30.12 in 10.0 mi NNE 11.5 mph 18.4 mph N/A   Mostly Cloudy
11:15 AM 44.6 °F 39.7 °F 39.2 °F 81% 30.14 in 10.0 mi North 9.2 mph - 0.01 in   Overcast
11:19 AM 44.6 °F 40.2 °F 39.2 °F 81% 30.13 in 10.0 mi North 8.1 mph - 0.01 in   Overcast
11:37 AM 44.6 °F 39.7 °F 37.4 °F 76% 30.13 in 10.0 mi NNE 9.2 mph - 0.01 in   Mostly Cloudy
11:55 AM 44.6 °F 39.7 °F 39.2 °F 81% 30.14 in 10.0 mi North 9.2 mph - 0.01 in   Mostly Cloudy
12:16 PM 44.6 °F 39.7 °F 37.4 °F 76% 30.13 in 10.0 mi North 9.2 mph - N/A   Mostly Cloudy
12:35 PM 44.6 °F 39.7 °F 37.4 °F 76% 30.13 in 10.0 mi NNE 9.2 mph - N/A   Mostly Cloudy
12:36 PM 44.6 °F 39.2 °F 37.4 °F 76% 30.13 in 10.0 mi NNE 10.4 mph - N/A   Mostly Cloudy
12:58 PM 44.6 °F 39.7 °F 39.2 °F 81% 30.13 in 10.0 mi North 9.2 mph - N/A   Mostly Cloudy
1:17 PM 46.4 °F 42.4 °F 39.2 °F 76% 30.13 in 10.0 mi North 8.1 mph - N/A   Scattered Clouds
1:36 PM 46.4 °F 41.1 °F 39.2 °F 76% 30.13 in 10.0 mi North 11.5 mph 17.3 mph N/A   Scattered Clouds
1:55 PM 46.4 °F 41.5 °F 39.2 °F 76% 30.12 in 10.0 mi NNE 10.4 mph 17.3 mph N/A   Clear
1:56 PM 46.4 °F 41.5 °F 39.2 °F 76% 30.12 in 10.0 mi NNE 10.4 mph 17.3 mph N/A   Clear
2:15 PM 48.2 °F - 39.2 °F 71% 30.12 in 10.0 mi NNE 13.8 mph 18.4 mph N/A   Clear
2:37 PM 48.2 °F - 39.2 °F 71% 30.12 in 10.0 mi NNE 12.7 mph 17.3 mph N/A   Clear
2:55 PM 48.2 °F - 39.2 °F 71% 30.11 in 10.0 mi NNE 13.8 mph - N/A   Scattered Clouds
3:15 PM 48.2 °F - 39.2 °F 71% 30.11 in 10.0 mi North 10.4 mph 17.3 mph N/A   Mostly Cloudy
3:16 PM 48.2 °F - 39.2 °F 71% 30.12 in 10.0 mi North 11.5 mph 17.3 mph N/A   Mostly Cloudy
3:35 PM 48.2 °F - 39.2 °F 71% 30.12 in 10.0 mi NNE 9.2 mph - N/A   Scattered Clouds
3:58 PM 50.0 °F - 39.2 °F 66% 30.12 in 10.0 mi NNE 10.4 mph 17.3 mph N/A   Clear
4:16 PM 48.2 °F - 39.2 °F 71% 30.12 in 10.0 mi NNE 12.7 mph 17.3 mph N/A   Clear
4:35 PM 48.2 °F - 39.2 °F 71% 30.11 in 10.0 mi NNE 9.2 mph - N/A   Clear
4:36 PM 48.2 °F - 39.2 °F 71% 30.11 in 10.0 mi NNE 11.5 mph 16.1 mph N/A   Clear
4:55 PM 48.2 °F - 39.2 °F 71% 30.11 in 10.0 mi North 9.2 mph - N/A   Clear
4:56 PM 48.2 °F - 39.2 °F 71% 30.11 in 10.0 mi NNE 9.2 mph - N/A   Clear
5:15 PM 46.4 °F 40.7 °F 39.2 °F 76% 30.11 in 10.0 mi North 12.7 mph 21.9 mph 0.01 in   Clear
5:19 PM 46.4 °F 41.5 °F 39.2 °F 76% 30.12 in 10.0 mi North 10.4 mph - 0.01 in   Clear
5:37 PM 46.4 °F 40.4 °F 39.2 °F 76% 30.10 in 10.0 mi NNE 13.8 mph 19.6 mph 0.01 in   Clear
5:55 PM 46.4 °F 40.7 °F 37.4 °F 71% 30.11 in 10.0 mi North 12.7 mph - 0.01 in   Scattered Clouds
6:15 PM 44.6 °F 38.4 °F 37.4 °F 76% 30.12 in 10.0 mi NNE 12.7 mph 19.6 mph N/A   Clear
6:16 PM 44.6 °F 38.8 °F 37.4 °F 76% 30.12 in 10.0 mi NNE 11.5 mph 19.6 mph N/A   Clear
6:35 PM 44.6 °F 38.4 °F 37.4 °F 76% 30.11 in 10.0 mi NNE 12.7 mph 18.4 mph N/A   Clear
6:36 PM 44.6 °F 38.8 °F 37.4 °F 76% 30.11 in 10.0 mi NNE 11.5 mph 18.4 mph N/A   Clear
6:59 PM 44.6 °F 40.2 °F 37.4 °F 76% 30.13 in 10.0 mi North 8.1 mph - N/A   Clear
7:16 PM 44.6 °F 39.2 °F 37.4 °F 76% 30.13 in 10.0 mi North 10.4 mph - N/A   Clear
7:36 PM 44.6 °F 38.8 °F 37.4 °F 76% 30.13 in 10.0 mi North 11.5 mph 18.4 mph N/A   Clear
7:55 PM 44.6 °F 38.4 °F 37.4 °F 76% 30.13 in 10.0 mi North 12.7 mph 23.0 mph N/A   Clear
8:15 PM 42.8 °F 36.2 °F 37.4 °F 81% 30.12 in 10.0 mi North 12.7 mph 23.0 mph N/A   Scattered Clouds
8:20 PM 42.8 °F 36.6 °F 37.4 °F 81% 30.13 in 10.0 mi North 11.5 mph 23.0 mph N/A   Scattered Clouds
8:37 PM 42.8 °F 37.0 °F 37.4 °F 81% 30.13 in 10.0 mi North 10.4 mph 19.6 mph N/A   Scattered Clouds
8:56 PM 42.8 °F 36.6 °F 37.4 °F 81% 30.13 in 10.0 mi NNE 11.5 mph 16.1 mph N/A   Clear
9:15 PM 42.8 °F 37.5 °F 37.4 °F 81% 30.14 in 10.0 mi North 9.2 mph - N/A   Scattered Clouds
9:16 PM 42.8 °F 37.5 °F 37.4 °F 81% 30.14 in 10.0 mi North 9.2 mph - N/A   Scattered Clouds
9:35 PM 42.8 °F 38.6 °F 37.4 °F 81% 30.14 in 10.0 mi North 6.9 mph - N/A   Overcast
9:36 PM 42.8 °F 38.6 °F 37.4 °F 81% 30.15 in 10.0 mi North 6.9 mph - N/A   Overcast
9:58 PM 42.8 °F 37.5 °F 37.4 °F 81% 30.15 in 10.0 mi NNE 9.2 mph - N/A   Overcast
10:16 PM 42.8 °F 36.2 °F 37.4 °F 81% 30.16 in 10.0 mi NE 12.7 mph 18.4 mph N/A   Overcast
10:36 PM 42.8 °F 36.6 °F 37.4 °F 81% 30.15 in 10.0 mi NE 11.5 mph 18.4 mph N/A   Overcast
10:55 PM 42.8 °F 37.0 °F 37.4 °F 81% 30.16 in 10.0 mi NE 10.4 mph - N/A   Overcast
10:56 PM 42.8 °F 37.5 °F 37.4 °F 81% 30.16 in 10.0 mi NE 9.2 mph - N/A   Overcast
11:15 PM 42.8 °F 37.0 °F 37.4 °F 81% 30.16 in 10.0 mi NE 10.4 mph - N/A   Overcast
11:19 PM 42.8 °F 37.0 °F 37.4 °F 81% 30.16 in 10.0 mi NE 10.4 mph 16.1 mph N/A   Overcast
11:55 PM 42.8 °F 38.0 °F 37.4 °F 81% 30.16 in 10.0 mi NE 8.1 mph - N/A   Overcast